Flag for Martinique Weather past 2 weeks in Fort-de-France, Martinique

Now
84 °F

Partly sunny.


Feels Like: 91 °F
Forecast: N/A
Wind: 7 mph from Northeast

Location: Le Lamentin Airport

Current Time: Sep 3, 2015 at 6:33:50 PM

Latest Report: Sep 3, 2015 at 6:00 PM


Visibility: N/A

Pressure: 29.92 "Hg

Humidity: 70%

Dew point: 73 °F

Location of Fort-de-FranceLocation

Historic Weather in Fort-de-France — Graph

°F

Fort-de-France temperature yesterday

Maximum temperature yesterday: 90 °F (at 10:00 AM)
Minimum temperature yesterday: 79 °F (at 5:30 AM)
Average temperature yesterday: 84 °F

Past Weeks' High & Low Weather Summary

 TemperatureHumidityPressure
High91 °F (Aug 24, 1:00 PM)94% (Aug 23, 3:00 AM)30.04 "Hg (Aug 23, 3:00 AM)
Low75 °F (Aug 23, 3:00 AM)52% (Aug 22, 12:00 PM)29.77 "Hg (Aug 27, 3:00 AM)
Average83 °F78%29.93 "Hg
* Reported Aug 19 5:00 PM — Sep 3 5:30 PM, Fort-de-France, Weather by CustomWeather, © 2015

Note: Actual official high and low records may vary slightly from our data, if they occured in-between our weather recording intervals... More about our weather records

Advertising

Fort-de-France weather history for previous 24 hours

 ConditionsComfort  
Time TempWeatherWind HumidityBarometerVisibility
5:30 PM
Thu, Sep 3
86 °FPartly sunny.8 mph66%29.92 "HgN/A
5:00 PM86 °FBroken clouds.12 mph62%29.92 "HgN/A
4:30 PM88 °FPassing clouds.9 mph59%29.92 "HgN/A
4:00 PM90 °FPassing clouds.9 mph59%29.92 "HgN/A
3:30 PM90 °FScattered clouds.10 mph55%29.92 "HgN/A
3:00 PM90 °FScattered clouds.8 mph59%29.92 "HgN/A
2:30 PM90 °FPartly sunny.10 mph55%29.92 "HgN/A
2:00 PM90 °FPartly sunny.10 mph55%29.92 "HgN/A
1:30 PM90 °FPassing clouds.10 mph52%29.95 "HgN/A
1:00 PM90 °FClear.10 mph55%29.95 "HgN/A
12:30 PM90 °FClear.10 mph52%29.95 "HgN/A
12:00 PM90 °FClear.9 mph52%29.95 "HgN/A
11:30 AM90 °FClear.9 mph55%29.98 "HgN/A
11:00 AM90 °FClear.9 mph55%29.98 "HgN/A
10:30 AM90 °FPassing clouds.8 mph55%29.98 "HgN/A
10:00 AM88 °FPassing clouds.8 mph62%29.98 "HgN/A
9:30 AM88 °FPassing clouds.9 mph62%29.98 "HgN/A
9:00 AM88 °FScattered clouds.9 mph62%29.98 "HgN/A
8:30 AM86 °FPassing clouds.9 mph66%29.98 "HgN/A
8:00 AM84 °FClear.1 mph74%29.95 "HgN/A
7:30 AM82 °FClear.No wind79%29.95 "HgN/A
7:00 AM77 °FPassing clouds.No wind94%29.95 "HgN/A
6:30 AM75 °FPassing clouds.No wind94%29.95 "HgN/A
6:00 AM75 °FPassing clouds.No wind94%29.95 "HgN/A
5:30 AM75 °FPassing clouds.2 mph94%29.95 "HgN/A
5:00 AM75 °FPassing clouds.2 mph89%29.95 "HgN/A
4:30 AM75 °FClear.No wind94%29.95 "HgN/A
4:00 AM77 °FClear.1 mph89%29.95 "HgN/A
3:30 AM77 °FClear.No wind89%29.95 "HgN/A
3:00 AM77 °FClear.3 mph89%29.95 "HgN/A
2:30 AM79 °FClear.2 mph84%29.95 "HgN/A
2:00 AM79 °FClear.3 mph84%29.95 "HgN/A
1:30 AM79 °FClear.2 mph89%29.95 "HgN/A
1:00 AM79 °FClear.3 mph84%29.95 "HgN/A
12:30 AM79 °FClear.3 mph84%29.95 "HgN/A
12:00 AM79 °FClear.3 mph89%29.98 "HgN/A
11:30 PM
Wed, Sep 2
81 °FClear.3 mph84%29.98 "HgN/A
11:00 PM81 °FPassing clouds.3 mph79%29.98 "HgN/A
10:30 PM81 °FClear.3 mph84%30.01 "HgN/A
10:00 PM81 °FPassing clouds.2 mph84%30.01 "HgN/A
9:00 PM81 °FClear.3 mph84%29.98 "HgN/A
8:30 PM81 °FClear.3 mph79%29.98 "HgN/A
8:00 PM81 °FPassing clouds.3 mph79%29.98 "HgN/A
7:30 PM82 °FClear.6 mph74%29.95 "HgN/A
7:00 PM82 °FClear.6 mph74%29.95 "HgN/A
Weather by CustomWeather, © 2015

See weather overviewHow to use our weather pages